Location: Boca do Mato
(22.9085°S, 43.2930°W)
Time: 21:26:34
(UTC+00:00)

CORIOLIS - Pass Details

Date: 14 July 2020
Orbit: 819 x 838 km, 98.7° (Epoch: 10 August)

Event Time Altitude Azimuth Distance (km) Brightness Sun altitude
Rises 08:55:43 0° 6° (N) 3,367 7.7 -9.0°
Reaches altitude 10° 08:58:05 10° 3° (N) 2,438 6.9 -8.5°
Maximum altitude 09:03:27 64° 282° (WNW) 924 4.2 -7.3°
Drops below altitude 10° 09:08:50 10° 200° (SSW) 2,453 6.2 -6.1°
Sets 09:11:14 0° 197° (SSW) 3,390 7.0 -5.6°
